KRMY

Details ICAO KRMY (RMY)
Name BROOKS FLD
Region United States
Timezone America/Detroit (UTC-4.0)
Plans Departing 0
Arriving 1
Stats Elevation 941 ft / 287 m (AMSL)
Location 42.251191° -84.955448°
Runways 1
Magnetic Variation 6.107° W
Sunrise 2018-05-22 10:13:46 UTC / 2018-05-22 06:13:46 Local
Sunset 2018-05-23 01:02:06 UTC / 2018-05-22 21:02:06 Local
Advertisement - Login to hide

Runways

ID Width Length Bearing (true) Bearing (mag) Surface Threshold Offset Overrun Length
10 75 ft / 23 m 3,491 ft / 1,064 m 96.63° 102.74° Asphalt 0 ft / 0 m 0 ft / 0 m
28 75 ft / 23 m 3,491 ft / 1,064 m 276.64° 282.75° Asphalt 0 ft / 0 m 0 ft / 0 m

Map

Weather


0- 5 10 15 20 25 30 35+ Temperature / ° C

Clouds and Precipitation
Forecast for 2018-05-22 12:00 UTC. Updated 3 hours ago

Ground ~20,000 ft ~40,000 ft Winds

METAR

KRMY 221415Z AUTO 22004KT 7SM OVC006 18/17 A2999 RMK AO2 T01790166

TAF

Not found

Frequencies

Recorded 120.02 MHz AWOS 3
Approach 119.20 MHz KALAMAZOO APP/DEP
Unicom 122.80 MHz CTAF/UNICOM
Warning: Do not use this data for real-world aviation or navigation. No guarantee of current accuracy is given.